Location: Saratoga Springs
(43.0831°N, 73.7850°W)
Time: 11:46:52
(UTC-04:00)

Vanguard 2 Rocket - All Passes

Search period start: 13 April 2024 00:00
Search period end: 23 April 2024 00:00
Orbit: 555 x 3307 km, 32.9° (Epoch: 13 April)

Date Brightness Start Highest point End Pass type
(mag) Time Alt. Az. Time Alt. Az. Time Alt. Az.
13 Apr - 01:47:59 10° WSW 02:07:19 58° S 02:21:05 10° ESE visible
13 Apr - 04:06:05 10° W 04:23:01 51° SSW 04:33:33 10° SE visible
13 Apr - 06:25:48 10° W 06:36:07 25° SW 06:43:09 10° S daylight
13 Apr - 20:25:23 10° SSE 20:32:27 13° SE 20:39:48 10° ESE visible
13 Apr - 22:30:27 10° SSW 22:46:54 36° SSE 23:02:55 10° E visible
14 Apr - 00:43:57 10° WSW 01:03:18 56° SSE 01:18:41 10° E visible
14 Apr - 03:01:07 10° W 03:19:46 57° S 03:32:05 10° ESE visible
14 Apr - 05:20:11 10° W 05:34:08 36° SSW 05:43:06 10° SSE visible
14 Apr - 21:29:10 10° S 21:43:23 28° SE 21:58:22 10° E visible
14 Apr - 23:40:35 10° SW 23:59:09 51° SSE 00:15:47 10° E visible
15 Apr - 01:56:29 10° WSW 02:16:02 60° S 02:30:09 10° ESE visible
15 Apr - 04:14:52 10° W 04:31:34 46° SSW 04:42:18 10° SE visible
15 Apr - 06:35:40 10° W 06:44:13 19° SW 06:50:36 10° S daylight
15 Apr - 20:29:17 10° S 20:40:17 20° SE 20:52:23 10° E visible
15 Apr - 22:37:58 10° SW 22:55:07 44° SSE 23:12:18 10° E visible
16 Apr - 00:52:20 10° WSW 01:11:55 59° S 01:27:45 10° E visible
16 Apr - 03:09:49 10° W 03:28:24 54° SSW 03:40:57 10° SE visible
16 Apr - 05:29:21 10° W 05:42:21 29° SW 05:51:14 10° SSE visible
16 Apr - 19:32:57 10° SE 19:37:39 11° SE 19:42:37 10° ESE daylight
16 Apr - 21:36:10 10° SSW 21:51:23 36° SE 22:08:05 10° E visible
16 Apr - 23:48:48 10° WSW 00:07:38 56° SSE 00:24:52 10° E visible
17 Apr - 02:05:08 10° W 02:24:41 59° S 02:39:06 10° ESE visible
17 Apr - 04:23:44 10° W 04:39:56 40° SSW 04:50:47 10° SSE visible
17 Apr - 06:46:52 10° WSW 06:52:09 13° SW 06:56:37 10° SSW daylight
17 Apr - 20:35:23 10° S 20:48:07 27° SE 21:02:54 10° E visible
17 Apr - 22:45:55 10° SW 23:03:25 51° SSE 23:21:25 10° E visible
18 Apr - 01:00:54 10° WSW 01:20:32 61° S 01:36:44 10° ESE visible
18 Apr - 03:18:35 10° W 03:36:53 49° SSW 03:49:38 10° SE visible
18 Apr - 05:38:57 10° W 05:50:23 23° SW 05:58:47 10° S visible
18 Apr - 19:36:07 10° SSE 19:45:22 18° SE 19:56:06 10° E daylight
18 Apr - 21:43:48 10° SW 21:59:29 43° SSE 22:17:22 10° E visible
18 Apr - 23:57:15 10° WSW 00:16:10 60° S 00:33:50 10° E visible
19 Apr - 02:13:51 10° W 02:33:14 56° SSW 02:47:54 10° ESE visible
19 Apr - 04:32:50 10° W 04:48:05 33° SW 04:58:53 10° SSE visible
19 Apr - 20:42:29 10° SSW 20:56:02 34° SE 21:12:33 10° E visible
19 Apr - 22:54:13 10° SW 23:11:47 56° SSE 23:30:24 10° E visible
20 Apr - 01:09:36 10° W 01:29:07 61° S 01:45:35 10° ESE visible
20 Apr - 03:27:27 10° W 03:45:11 43° SSW 03:58:02 10° SE visible
20 Apr - 05:49:25 10° W 05:58:14 17° SW 06:05:19 10° SSW daylight
20 Apr - 19:42:12 10° S 19:53:07 25° SE 20:06:45 10° E daylight
20 Apr - 21:51:51 10° SW 22:07:41 50° SSE 22:26:23 10° E visible
21 Apr - 00:05:53 10° WSW 00:24:42 62° S 00:42:43 10° ESE visible
21 Apr - 02:22:39 10° W 02:41:39 52° SSW 02:56:28 10° SE visible
21 Apr - 04:42:16 10° W 04:56:02 26° SW 05:06:25 10° S visible
21 Apr - 18:43:44 10° SSE 18:50:46 15° SE 18:59:06 10° E daylight
21 Apr - 20:50:12 10° SSW 21:04:03 41° SSE 21:21:46 10° E visible
21 Apr - 23:02:46 10° WSW 23:20:15 60° S 23:39:16 10° E visible
22 Apr - 01:18:23 10° W 01:37:37 58° SSW 01:54:17 10° ESE visible
22 Apr - 03:36:31 10° W 03:53:17 36° SW 04:06:02 10° SSE visible
22 Apr - 06:02:53 10° WSW 06:05:56 11° SW 06:08:46 10° SW daylight
22 Apr - 19:49:21 10° SSW 20:00:59 31° SE 20:16:26 10° E visible
22 Apr - 22:00:14 10° SW 22:16:01 55° SSE 22:35:15 10° E visible
